www.pogodaiklimat.ru

Погода и климат >> Архив погоды >> Венгрия >> Poroszlo


ПОГОДА в Poroszlo

  • Прогноз погоды в Poroszlo
  • Монитор погоды в Poroszlo
  • Климат города

АРХИВ ПОГОДЫ в Poroszlo

Время (UTC), дата Ветер
(напр.,м/с)
 
Видим.   Явления Облачность Т
(С)
Тd
(С)
f
(%)
Тe
(С)
Тes
(С)
Комфортность P
(гПа)
Po
(гПа)
Тmin
(С)
Tmax
(С)
R
(мм)
R24
(мм)
S
(см)
22 6.12 ЮЗ 1 н/о н/о -0.6 -2.3 88 -3 -3 1026.6 1015.0
23 6.12 Ю 2 н/о н/о -0.1 -2.6 83 -4 -4 1026.0 1014.5
00 7.12 ЮЗ 1 н/о н/о 0.0 -2.7 82 -2 -2 1026.0 1014.5
01 7.12 ЮЗ 1 н/о н/о 0.0 -2.4 84 -2 -2 1025.7 1014.2
02 7.12 Ю 1 н/о н/о -0.1 -2.6 83 -2 -2 1025.2 1013.7
03 7.12 Ю 2 н/о н/о +0.2 -2.5 82 -3 -3 1024.6 1013.1
04 7.12 Ю 2 н/о н/о +0.4 -2.8 79 -3 -3 1024.2 1012.7
05 7.12 Ю 2 н/о н/о +0.3 -2.7 80 -3 -3 1024.1 1012.6
06 7.12 Ю 3 н/о н/о +0.2 -2.2 84 -4 -4 1023.4 1011.9 -1.5 0.1
07 7.12 Ю 3 н/о н/о +0.3 -1.9 85 -4 -4 1022.8 1011.3
08 7.12 Ю 2 н/о н/о +0.5 -1.7 85 -3 -3 1022.8 1011.3
09 7.12 Ю 2 н/о н/о +0.8 -1.6 84 -3 -3 1023.0 1011.5
10 7.12 Ю 2 н/о н/о +0.9 -1.3 85 -3 -3 1022.6 1011.1
11 7.12 Ю 3 н/о н/о +1.1 -1.1 85 -3 -3 1021.4 1010.0
12 7.12 Ю 3 н/о н/о +1.6 -1.5 80 -3 -3 1020.7 1009.3
13 7.12 Ю 3 н/о н/о +1.8 -0.8 83 -2 -2 1020.1 1008.7
14 7.12 Ю 3 н/о н/о +1.5 0.0 90 -3 -3 1019.5 1008.1
15 7.12 ЮВ 2 н/о н/о +1.5 +0.2 91 -2 -2 1019.0 1007.6
16 7.12 Ю 3 н/о н/о +1.7 +0.1 89 -3 -3 1018.3 1006.9
17 7.12 ЮВ 2 н/о н/о +1.6 -0.3 87 -2 -2 1017.9 1006.5
18 7.12 ЮВ 2 н/о н/о +1.6 -0.5 86 -2 -2 1017.3 1005.9 +2.0 0.1
21 7.12 В 2 н/о н/о +0.7 -0.9 89 -3 -3 1014.9 1003.5
00 8.12 СВ 2 н/о н/о 0.0 -1.9 87 -4 -4 1013.0 1001.6
01 8.12 В 1 н/о н/о +0.1 -2.1 85 -2 -2 1012.3 1000.9
02 8.12 СВ 1 н/о н/о -0.2 -2.3 86 -2 -2 1011.8 1000.4
03 8.12 СВ 2 н/о н/о +0.1 -2.1 85 -4 -4 1011.0 999.6
04 8.12 В 2 н/о н/о +0.5 -1.9 84 -3 -3 1010.3 999.0
05 8.12 В 2 н/о н/о +0.4 -1.4 88 -3 -3 1010.0 998.7
06 8.12 С 2 н/о н/о +0.3 -1.0 91 -3 -3 1010.2 998.9 -0.3 0.1
07 8.12 СВ 1 н/о н/о +0.2 -0.6 94 -2 -2 1010.8 999.4
08 8.12 СВ 2 н/о н/о +0.4 -0.3 95 -3 -3 1010.3 999.0
09 8.12 СЗ 2 н/о н/о +1.0 +0.3 95 -3 -3 1010.9 999.6
10 8.12 С 1 н/о н/о +1.3 +0.3 93 -1 -1 1011.0 999.7
11 8.12 СВ 2 н/о н/о +1.7 +0.4 91 -2 -2 1010.5 999.2
12 8.12 штиль 0 н/о н/о +2.1 +0.5 89 +1 +1 1011.0 999.7 6
13 8.12 С 1 н/о н/о +2.4 +0.8 89 +1 +1 1011.4 1000.1
14 8.12 С 1 н/о н/о +2.4 +0.8 89 +1 +1 1011.6 1000.3
15 8.12 СВ 1 н/о н/о +2.3 +0.7 89 +1 +1 1012.0 1000.7
16 8.12 штиль 0 н/о н/о +1.9 +0.6 91 +1 +1 1012.3 1001.0
17 8.12 штиль 0 н/о н/о +1.7 +0.4 91 +1 +1 1012.8 1001.5
18 8.12 штиль 0 н/о н/о +1.2 +0.3 94 -0 -0 1012.9 1001.6 +2.5 6
19 8.12 ЮЗ 1 н/о н/о +0.8 +0.1 95 -1 -1 1012.9 1001.5
20 8.12 Ю 1 н/о н/о +0.2 -0.4 96 -2 -2 1012.8 1001.4
21 8.12 З 1 н/о н/о -1.3 -1.9 96 -4 -4 1012.7 1001.3
22 8.12 З 1 н/о н/о -1.9 -2.5 96 -4 -4 1012.7 1001.2
23 8.12 Ю 1 н/о н/о -0.9 -1.3 97 -3 -3 1012.5 1001.1
00 9.12 Ю 2 н/о н/о -0.3 -0.7 97 -4 -4 1012.0 1000.6
01 9.12 Ю 3 н/о н/о +1.2 +0.8 97 -3 -3 1011.1 999.8
02 9.12 ЮЗ 3 н/о н/о +1.9 +0.3 89 -2 -2 1010.5 999.2
03 9.12 ЮЗ 3 н/о н/о +2.0 +0.4 89 -2 -2 1010.2 998.9
04 9.12 Ю 2 н/о н/о +2.0 +0.5 90 -1 -1 1009.6 998.3
05 9.12 Ю 3 н/о н/о +2.4 +0.9 90 -2 -2 1008.9 997.7
06 9.12 ЮВ 2 н/о н/о +2.2 +0.9 91 -1 -1 1008.4 997.2 -2.0
07 9.12 Ю 3 н/о н/о +2.4 +1.1 91 -2 -2 1007.8 996.6
08 9.12 Ю 3 н/о н/о +3.2 +1.2 87 -1 -1 1007.4 996.2
09 9.12 Ю 4 н/о н/о +3.7 +1.6 86 -1 -1 1006.4 995.2
10 9.12 Ю 5
{8}
н/о н/о +4.5 +1.2 79 -0 -0 1006.0 994.9
11 9.12 Ю 5
{9}
н/о н/о +4.2 +0.9 79 -1 -1 1005.9 994.8
12 9.12 Ю 5
{9}
н/о н/о +5.2 +2.0 80 +1 +1 1004.6 993.5
13 9.12 Ю 4
{8}
н/о н/о +5.0 +1.8 80 +1 +1 1004.1 993.0
14 9.12 Ю 4
{7}
н/о н/о +5.6 +2.6 81 +2 +2 1004.1 993.0
15 9.12 ЮЗ 2 н/о н/о +5.3 +2.7 83 +3 +3 1004.3 993.2
16 9.12 ЮЗ 3 н/о н/о +4.7 +2.1 83 +1 +1 1004.1 993.0
17 9.12 Ю 2 н/о н/о +3.8 +1.2 83 +1 +1 1004.2 993.1
18 9.12 ЮВ 1 н/о н/о +3.2 +1.1 86 +2 +2 1004.4 993.2 +5.7
19 9.12 Ю 2 н/о н/о +2.5 +0.9 89 -1 -1 1004.6 993.4
20 9.12 Ю 2 н/о н/о +2.4 +0.8 89 -1 -1 1004.8 993.6
21 9.12 Ю 3 н/о н/о +1.7 +0.2 90 -3 -3 1005.0 993.8
22 9.12 ЮЗ 3 н/о н/о +1.8 +0.2 89 -3 -3 1005.1 993.9
23 9.12 ЮЗ 4 н/о н/о +1.7 +0.2 90 -3 -3 1005.1 993.9
00 10.12 ЮЗ 4 н/о н/о +2.2 +0.4 88 -3 -3 1005.0 993.8
01 10.12 ЮЗ 5
{6}
н/о н/о +1.7 +0.2 90 -4 -4 1005.1 993.9
02 10.12 ЮЗ 4 н/о н/о +1.9 +0.3 89 -3 -3 1005.3 994.1
03 10.12 ЮЗ 4 н/о н/о +1.9 +0.1 88 -3 -3 1004.9 993.7
04 10.12 З 4
{7}
н/о н/о +2.1 +0.6 90 -3 -3 1005.0 993.8
05 10.12 ЮЗ 2 н/о н/о +1.7 +0.5 92 -2 -2 1005.6 994.4
06 10.12 З 4 н/о н/о +3.0 +1.4 89 -2 -2 1005.8 994.6 +1.4
07 10.12 З 4
{8}
н/о н/о +3.5 +1.5 87 -1 -1 1006.1 994.9
08 10.12 З 5
{8}
н/о н/о +4.4 +2.3 86 -1 -1 1006.6 995.5
09 10.12 З 7 н/о н/о +6.4 +1.9 73 +2 +2 1007.3 996.2
10 10.12 СЗ 6
{10}
н/о н/о +7.5 +1.8 67 +3 +3 1007.9 996.9
11 10.12 СЗ 5
{9}
н/о н/о +8.6 +1.7 62 +5 +5 1008.0 997.0
12 10.12 З 6 н/о н/о +8.5 +1.0 59 +5 +5 1008.5 997.5
13 10.12 З 6
{10}
н/о н/о +7.3 +0.5 62 +3 +3 1009.1 998.0
14 10.12 З 6
{11}
н/о н/о +6.9 -0.6 59 +3 +3 1009.7 998.6
15 10.12 СЗ 4
{8}
н/о н/о +6.0 -1.2 60 +3 +3 1010.2 999.1
16 10.12 З 4 н/о н/о +4.4 -1.0 68 0 0 1011.1 999.9
17 10.12 СЗ 5
{8}
н/о н/о +4.0 -1.4 68 -1 -1 1011.4 1000.2
18 10.12 СЗ 3
{7}
н/о н/о +2.3 -1.7 75 -2 -2 1011.8 1000.5 +8.9
19 10.12 ЮЗ 2 н/о н/о +1.3 -1.6 81 -2 -2 1011.9 1000.6
20 10.12 Ю 2 н/о н/о +0.7 -1.7 84 -3 -3 1012.4 1001.0
21 10.12 Ю 2 н/о н/о +0.5 -1.4 87 -3 -3 1012.4 1001.0
22 10.12 СЗ 1 н/о н/о -0.7 -2.4 88 -3 -3 1012.5 1001.1
23 10.12 З 4 н/о н/о +0.7 -1.7 84 -5 -5 1012.5 1001.1
00 11.12 СЗ 5
{7}
н/о н/о +1.0 -2.2 79 -5 -5 1012.2 1000.9
01 11.12 З 4
{7}
н/о н/о +0.4 -2.5 81 -5 -5 1012.7 1001.3
02 11.12 СЗ 5
{6}
н/о н/о -0.2 -2.7 83 -6 -6 1012.8 1001.4
03 11.12 З 2 н/о н/о -1.8 -3.5 88 -6 -6 1013.2 1001.7
04 11.12 З 3 н/о н/о -2.6 -4.0 90 -8 -8 1013.4 1001.9
05 11.12 З 2 н/о н/о -2.8 -4.4 89 -7 -7 1013.7 1002.2
06 11.12 З 2 н/о н/о -3.4 -4.7 91 -8 -8 1014.0 1002.5 -3.4
07 11.12 Ю 1 н/о н/о -2.7 -3.7 93 -5 -5 1014.4 1002.9
08 11.12 ЮЗ 2 н/о н/о -0.4 -2.4 86 -4 -4 1014.4 1003.0
09 11.12 З 1 н/о н/о +1.5 -1.9 78 -0 -0 1014.5 1003.2
10 11.12 Ю 1 н/о н/о +2.6 -2.3 70 +1 +1 1014.4 1003.1
11 11.12 ЮЗ 3 н/о н/о +3.6 -1.4 70 0 0 1014.0 1002.7
12 11.12 З 4 н/о н/о +4.7 -0.7 68 +1 +1 1013.7 1002.5
13 11.12 З 5
{8}
н/о н/о +3.1 -0.4 78 -2 -2 1014.1 1002.8
14 11.12 ЮЗ 3
{7}
н/о н/о +3.0 +0.1 81 -1 -1 1014.4 1003.1
15 11.12 ЮЗ 3 н/о н/о +2.2 -0.4 83 -2 -2 1014.6 1003.3
16 11.12 Ю 2 н/о н/о +1.2 -0.7 87 -2 -2 1014.9 1003.5
17 11.12 ЮЗ 3 н/о н/о +1.8 -0.4 85 -2 -2 1014.9 1003.6
18 11.12 Ю 2 н/о н/о +1.7 +0.5 92 -2 -2 1014.8 1003.5 +5.1 0.1
19 11.12 Ю 2 н/о н/о +1.2 +0.3 94 -2 -2 1015.0 1003.6
20 11.12 ЮЗ 3 н/о н/о +1.8 +0.9 94 -3 -3 1014.7 1003.4
21 11.12 Ю 2 н/о н/о +2.0 +1.0 93 -1 -1 1014.6 1003.3
22 11.12 ЮЗ 2 н/о н/о +1.7 +0.7 93 -2 -2 1014.5 1003.2
23 11.12 ЮЗ 2 н/о н/о +1.7 +0.8 94 -2 -2 1014.5 1003.2
00 12.12 ЮЗ 1 н/о н/о +1.6 +0.7 94 -0 -0 1014.6 1003.3
01 12.12 З 1 н/о н/о +1.3 +0.6 95 -1 -1 1014.9 1003.5
02 12.12 С 1 н/о н/о +1.4 +0.8 96 -1 -1 1015.0 1003.6
03 12.12 С 2 н/о н/о +1.1 +0.5 96 -3 -3 1015.1 1003.7
04 12.12 С 3 н/о н/о +0.9 +0.3 96 -4 -4 1015.3 1003.9
05 12.12 С 2 н/о н/о +0.6 0.0 96 -3 -3 1015.7 1004.3
06 12.12 С 3 н/о н/о +0.7 +0.1 96 -4 -4 1016.2 1004.8 +0.6 0.9
07 12.12 С 3 н/о н/о +1.0 +0.4 96 -4 -4 1016.9 1005.5
08 12.12 С 2 н/о н/о +1.6 +0.9 95 -2 -2 1017.3 1005.9
09 12.12 СВ 3 н/о н/о +2.0 +0.4 89 -2 -2 1017.8 1006.4
10 12.12 СВ 3 н/о н/о +2.2 +0.6 89 -2 -2 1018.1 1006.7
11 12.12 СВ 3 н/о н/о +2.5 +0.4 86 -2 -2 1018.1 1006.8
12 12.12 СВ 3 н/о н/о +2.9 +0.3 83 -1 -1 1018.4 1007.1
13 12.12 С 2 н/о н/о +3.1 -0.2 79 0 0 1018.6 1007.3
14 12.12 СВ 2 н/о н/о +3.4 -0.2 77 +1 +1 1019.1 1007.8
15 12.12 С 2 н/о н/о +2.3 -0.6 81 -1 -1 1019.6 1008.2
16 12.12 В 1 н/о н/о +1.1 -0.7 88 -1 -1 1019.8 1008.4
17 12.12 З 1 н/о н/о -0.1 -1.4 91 -2 -2 1020.3 1008.8
18 12.12 З 1 н/о н/о +0.2 -1.1 91 -2 -2 1020.7 1009.2 +3.5
19 12.12 ЮЗ 1 н/о н/о 0.0 -0.8 94 -2 -2 1020.9 1009.4
20 12.12 штиль 0 н/о н/о 0.0 -0.8 94 -1 -1 1021.1 1009.6
21 12.12 З 1 н/о н/о -0.2 -1.2 93 -2 -2 1021.4 1009.9
22 12.12 З 1 н/о н/о -0.5 -1.3 94 -3 -3 1021.7 1010.2
23 12.12 З 1 н/о н/о -0.5 -1.2 95 -3 -3 1021.9 1010.4
00 13.12 З 2 н/о н/о -1.2 -2.0 94 -5 -5 1021.9 1010.4
01 13.12 СЗ 1 н/о н/о -1.9 -2.6 95 -4 -4 1022.1 1010.5
02 13.12 СЗ 1 н/о н/о -2.6 -3.1 96 -5 -5 1022.3 1010.7
03 13.12 С 1 н/о н/о -2.6 -3.1 96 -5 -5 1022.2 1010.6
04 13.12 З 2 н/о н/о -3.1 -3.6 96 -7 -7 1022.1 1010.5
05 13.12 СЗ 1 н/о н/о -3.2 -3.9 95 -6 -6 1022.1 1010.5
06 13.12 штиль 0 н/о н/о -3.8 -4.5 95 -5 -5 1022.2 1010.5 -5.3
07 13.12 СЗ 1 н/о н/о -4.5 -5.3 94 -7 -7 1022.4 1010.7
08 13.12 З 2 н/о н/о -2.9 -3.6 95 -7 -7 1022.5 1010.9
09 13.12 З 1 н/о н/о +0.3 -0.8 92 -2 -2 1022.4 1010.9
10 13.12 СЗ 1 н/о н/о +1.2 -0.7 87 -1 -1 1022.3 1010.9
11 13.12 З 2 н/о н/о +2.7 -0.4 80 -0 -0 1021.9 1010.5
12 13.12 З 3 н/о н/о +3.3 -1.4 71 -0 -0 1021.7 1010.3
13 13.12 З 2 н/о н/о +3.8 -1.8 67 +1 +1 1021.3 1010.0
14 13.12 СЗ 1 н/о н/о +3.4 -2.1 67 +2 +2 1021.3 1010.0
15 13.12 штиль 0 н/о н/о +1.8 -2.2 75 +1 +1 1021.4 1010.0
16 13.12 СВ 2 н/о н/о +0.6 -2.4 80 -3 -3 1021.7 1010.2
17 13.12 С 1 н/о н/о -1.0 -2.9 87 -3 -3 1021.8 1010.3
18 13.12 С 1 н/о н/о -1.2 -2.9 88 -3 -3 1021.9 1010.4 +3.9
19 13.12 С 1 н/о н/о -0.3 -2.0 88 -2 -2 1022.2 1010.7
20 13.12 С 2 н/о н/о -0.2 -2.6 84 -4 -4 1022.4 1010.9

 

Местоположение метеостанции Poroszlo (Венгрия): широта 47.65 долгота 20.63 высота над уровнем моря 92 м.

В архиве по умолчанию представлена погода в Poroszlo за последнюю неделю. Архивные данные за месяц целиком и за предыдущие месяцы, начиная с января 2011 года, Вы можете получить, выбрав интересующий диапазон дат из раскрывающегося списка и нажав кнопку "Ввод!".


*Определитесь, кто Вы:
робот инопланетянин человек

Внимание! Время в таблицах - всемирное. Для получения местного времени необходимо прибавить поправку, которая в Poroszlo равна 1 ч.

Смотрите также архив погоды в соседних городах и на ближайших метеорологических станциях:

Погода в Eger (Венгрия) (34 км)
Погода в Miskolc (Венгрия) (51 км)
Погода в Kekesteto (Венгрия) (52 км)
Погода в Szolnok (Венгрия) (66 км)
Погода в Debrecen (Венгрия) (75 км)
Погода в Josvafo (Венгрия) (93 км)
Погода в Szecseny (Польша) (98 км)
Погода в Nyiregyhaza (Венгрия) (100 км)
Погода в Lucenec (Словакия) (101 км)
Погода в Kecskemet (Венгрия) (105 км)

Пояснения к столбцам:

Ветер - указаны скорость ветра в м/с - средняя за 10 мин, порывы в срок и между сроками (в фигурных скобках) и направление, откуда дует ветер: С - северный, СВ - северо-восточный, В - восточный, ЮВ - юго-восточный, Ю - южный, ЮЗ - юго-западный, З - западный, СЗ - северо-западный.
Видимость - горизонтальная дальность видимости в метрах или километрах. При видимости от 1 до 10 км при отсутствии осадков обычно наблюдается дымка, при ухудшении видимости до 1 км и менее - туман. В сухую погоду видимость может ухудшаться дымом, пылью или мглою.
Явления - указаны атмосферные явления, наблюдавшиеся в срок или в последний час перед сроком; фигурными скобками обозначены явления, наблюдавшиеся между сроками (за 1-3 часа до срока); квадратными скобками обозначены град или гололедные отложения с указанием их диаметра в мм.
Облачность - указаны через наклонную черту общая и нижняя облачность в баллах и высота нижней границы облаков в метрах; квадратными скобками обозначены формы облаков: Ci - перистые, Cs - перисто-слоистые, Cc - перисто-кучевые, Ac - высококучевые, As - высокослоистые, Sc - слоисто-кучевые, Ns - слоисто-дождевые, Cu - кучевые, Cb - кучево-дождевые. Подробнее классификацию облаков см. в Атласе облаков (PDF).
T - Температура воздуха - температура, измеренная на высоте 2 м над землей.
Td - Температура точки росы - температура, при понижении до которой содержащийся в воздухе водяной пар достигнет насыщения.
f - Относительная влажность воздуха - влажноcть воздуха, измеренная на высоте 2 м над землей.
Te - Эффективная температура - температура, которую ощущает одетый по сезону человек в тени. Характеристика душности погоды. При расчете учитывается влияние влажности воздуха и скорости ветра на теплоощущения человека.
Tes - Эффективная температура на солнце - температура, которую ощущает человек, с поправкой на солнечный нагрев. Характеристика знойности погоды. Зависит от высоты солнца над горизонтом, облачности и скорости ветра. Ночью, в пасмурную погоду, а также при ветре 12 м/с и более поправка равна нулю.
P - Атмосферное давление - приведенное к уровню моря атмосферное давление.
Po - Атмосферное давление - измеренное на уровне метеостанции атмосферное давление.
Tmin - Минимальная температура - минимум температуры воздуха на высоте 2 м над землей.
Tmax - Максимальная температура - максимум температуры воздуха на высоте 2 м над землей.
R - Количество осадков - Количество выпавших осадков за период времени, мм. При наведении курсора мыши на число - период времени, за который выпало указанное количество осадков.
R24 - Количество осадков - Количество выпавших осадков за 24 часа, мм.
S - Снежный покров - Высота снежного покрова, см. При наведении курсора мыши на число - состояние снежного покрова и степень покрытия местности в баллах.